When you browse on this site, cookies collect data to enhance your experience and personalize the content and advertising you see.
Visit our Privacy Policy to learn more. By continuing to use the site, you agree to this use of cookies and data.

Météo par heure à Vladimirskoe

Ce jour, 9 Juillet, Jeudi

Heure Température Précipitation Vent Pression Humidité
00:00 +19°C° 1.4 mm 2 m/s 738 mmHg 96%
01:00 +18°C° 1.3 mm 3 m/s 738 mmHg 96%
02:00 +18°C° 1.3 mm 4 m/s 739 mmHg 96%
03:00 +17°C° 1.3 mm 4 m/s 739 mmHg 96%
04:00 +15°C° 0.8 mm 5 m/s 739 mmHg 96%
05:00 +15°C° 0.8 mm 5 m/s 739 mmHg 95%
06:00 +14°C° 0.8 mm 5 m/s 740 mmHg 95%
07:00 +14°C° 0 mm 5 m/s 740 mmHg 92%
08:00 +15°C° 0 mm 6 m/s 741 mmHg 90%
09:00 +15°C° 0 mm 6 m/s 741 mmHg 88%
10:00 +16°C° 0 mm 6 m/s 742 mmHg 84%
11:00 +17°C° 0 mm 5 m/s 742 mmHg 79%
12:00 +20°C° 0 mm 5 m/s 743 mmHg 74%
13:00 +20°C° 0 mm 5 m/s 743 mmHg 72%
14:00 +21°C° 0 mm 5 m/s 743 mmHg 70%
15:00 +21°C° 0 mm 5 m/s 743 mmHg 68%
16:00 +21°C° 0 mm 4 m/s 743 mmHg 70%
17:00 +21°C° 0 mm 4 m/s 743 mmHg 72%
18:00 +21°C° 0 mm 4 m/s 743 mmHg 74%
19:00 +19°C° 0 mm 3 m/s 744 mmHg 78%
20:00 +18°C° 0 mm 3 m/s 744 mmHg 83%
21:00 +16°C° 0 mm 3 m/s 744 mmHg 87%
22:00 +14°C° 0 mm 3 m/s 745 mmHg 88%
23:00 +14°C° 0 mm 3 m/s 745 mmHg 89%

Demain, 10 Juillet, Vendredi

Heure Température Précipitation Vent Pression Humidité
00:00 +13°C° 0 mm 3 m/s 745 mmHg 90%
01:00 +13°C° 0 mm 3 m/s 746 mmHg 91%
02:00 +12°C° 0 mm 3 m/s 746 mmHg 92%
03:00 +12°C° 0 mm 3 m/s 746 mmHg 93%
04:00 +12°C° 0 mm 3 m/s 746 mmHg 92%
05:00 +12°C° 0 mm 3 m/s 747 mmHg 91%
06:00 +13°C° 0 mm 3 m/s 747 mmHg 90%
07:00 +14°C° 0 mm 3 m/s 747 mmHg 85%
08:00 +17°C° 0 mm 3 m/s 748 mmHg 79%
09:00 +18°C° 0 mm 3 m/s 748 mmHg 74%
10:00 +19°C° 0 mm 3 m/s 748 mmHg 69%
11:00 +20°C° 0 mm 3 m/s 748 mmHg 65%
12:00 +21°C° 0 mm 3 m/s 749 mmHg 60%
13:00 +21°C° 0 mm 3 m/s 749 mmHg 60%
14:00 +21°C° 0 mm 3 m/s 749 mmHg 59%
15:00 +21°C° 0 mm 3 m/s 749 mmHg 59%
16:00 +21°C° 0 mm 3 m/s 749 mmHg 61%
17:00 +21°C° 0 mm 2 m/s 749 mmHg 63%
18:00 +21°C° 0 mm 2 m/s 749 mmHg 66%
19:00 +20°C° 0 mm 1 m/s 749 mmHg 70%
20:00 +19°C° 0 mm 1 m/s 749 mmHg 74%
21:00 +15°C° 0 mm 0 m/s 749 mmHg 78%
22:00 +16°C° 0 mm 1 m/s 749 mmHg 79%
23:00 +15°C° 0 mm 1 m/s 749 mmHg 80%

Après-demain, 11 Juillet, Samedi

Heure Température Précipitation Vent Pression Humidité
00:00 +15°C° 0 mm 1 m/s 750 mmHg 81%
01:00 +15°C° 0 mm 1 m/s 750 mmHg 83%
02:00 +14°C° 0 mm 2 m/s 750 mmHg 84%
03:00 +14°C° 0 mm 2 m/s 750 mmHg 86%
04:00 +14°C° 0 mm 2 m/s 750 mmHg 86%
05:00 +15°C° 0 mm 2 m/s 750 mmHg 86%
06:00 +15°C° 0 mm 2 m/s 750 mmHg 86%
07:00 +17°C° 0 mm 2 m/s 750 mmHg 81%
08:00 +19°C° 0 mm 2 m/s 750 mmHg 76%
09:00 +20°C° 0 mm 2 m/s 750 mmHg 71%
10:00 +21°C° 0 mm 2 m/s 750 mmHg 68%
11:00 +23°C° 0 mm 2 m/s 750 mmHg 64%
12:00 +24°C° 0 mm 2 m/s 750 mmHg 61%
13:00 +25°C° 0 mm 2 m/s 750 mmHg 60%
14:00 +25°C° 0 mm 2 m/s 750 mmHg 58%
15:00 +26°C° 0 mm 2 m/s 750 mmHg 57%
16:00 +26°C° 0 mm 1 m/s 749 mmHg 59%
17:00 +25°C° 0 mm 1 m/s 749 mmHg 61%
18:00 +25°C° 0 mm 1 m/s 749 mmHg 63%
19:00 +24°C° 0 mm 1 m/s 749 mmHg 67%
20:00 +22°C° 0 mm 1 m/s 749 mmHg 70%
21:00 +20°C° 0 mm 1 m/s 749 mmHg 74%
22:00 +20°C° 0 mm 1 m/s 749 mmHg 75%
23:00 +19°C° 0 mm 1 m/s 749 mmHg 76%

12 Juillet, Dimanche

Heure Température Précipitation Vent Pression Humidité
00:00 +18°C° 0 mm 1 m/s 749 mmHg 77%
01:00 +18°C° 0 mm 1 m/s 748 mmHg 77%
02:00 +16°C° 0 mm 1 m/s 748 mmHg 77%
03:00 +16°C° 0 mm 1 m/s 748 mmHg 77%
04:00 +16°C° 0 mm 1 m/s 748 mmHg 78%
05:00 +18°C° 0 mm 1 m/s 748 mmHg 78%
06:00 +18°C° 0 mm 1 m/s 747 mmHg 79%
07:00 +20°C° 0 mm 1 m/s 747 mmHg 75%
08:00 +21°C° 0 mm 1 m/s 747 mmHg 71%
09:00 +23°C° 0 mm 1 m/s 747 mmHg 66%
10:00 +24°C° 0 mm 2 m/s 747 mmHg 63%
11:00 +25°C° 0 mm 2 m/s 747 mmHg 60%
12:00 +26°C° 0 mm 2 m/s 746 mmHg 57%
13:00 +26°C° 0 mm 2 m/s 746 mmHg 59%
14:00 +27°C° 0 mm 2 m/s 746 mmHg 60%
15:00 +28°C° 0 mm 3 m/s 745 mmHg 61%
16:00 +27°C° 0 mm 3 m/s 745 mmHg 65%
17:00 +27°C° 0 mm 3 m/s 744 mmHg 70%
18:00 +27°C° 0 mm 3 m/s 744 mmHg 74%
19:00 +26°C° 0.4 mm 3 m/s 743 mmHg 80%
20:00 +24°C° 0.4 mm 3 m/s 743 mmHg 86%
21:00 +22°C° 0.4 mm 3 m/s 743 mmHg 92%
22:00 +21°C° 0.6 mm 3 m/s 743 mmHg 93%
23:00 +21°C° 0.6 mm 3 m/s 742 mmHg 94%

13 Juillet, Lundi

Heure Température Précipitation Vent Pression Humidité
00:00 +20°C° 0.6 mm 3 m/s 742 mmHg 95%
01:00 +20°C° 0.1 mm 3 m/s 742 mmHg 95%
02:00 +20°C° 0.1 mm 2 m/s 741 mmHg 94%
03:00 +20°C° 0.1 mm 2 m/s 741 mmHg 94%
04:00 +20°C° 0.1 mm 3 m/s 740 mmHg 93%
05:00 +20°C° 0.1 mm 3 m/s 740 mmHg 93%
06:00 +20°C° 0.1 mm 4 m/s 740 mmHg 92%
07:00 +21°C° 0 mm 4 m/s 740 mmHg 90%
08:00 +22°C° 0 mm 4 m/s 739 mmHg 88%
09:00 +23°C° 0 mm 4 m/s 739 mmHg 86%
10:00 +25°C° 0.5 mm 4 m/s 739 mmHg 82%
11:00 +26°C° 0.5 mm 5 m/s 739 mmHg 79%
12:00 +27°C° 0.5 mm 5 m/s 738 mmHg 75%
13:00 +27°C° 2.1 mm 5 m/s 738 mmHg 77%
14:00 +26°C° 2.1 mm 5 m/s 737 mmHg 78%
15:00 +26°C° 2.1 mm 5 m/s 737 mmHg 80%
16:00 +25°C° 2.1 mm 5 m/s 737 mmHg 82%
17:00 +23°C° 2.1 mm 4 m/s 736 mmHg 84%
18:00 +22°C° 2.1 mm 3 m/s 736 mmHg 87%
19:00 +22°C° 1.3 mm 3 m/s 736 mmHg 89%
20:00 +21°C° 1.3 mm 3 m/s 735 mmHg 91%
21:00 +21°C° 1.3 mm 3 m/s 735 mmHg 93%
22:00 +20°C° 0.5 mm 3 m/s 735 mmHg 94%
23:00 +20°C° 0.5 mm 3 m/s 735 mmHg 94%

14 Juillet, Mardi

Heure Température Précipitation Vent Pression Humidité
00:00 +20°C° 0.5 mm 3 m/s 735 mmHg 95%
01:00 +20°C° 0.5 mm 4 m/s 735 mmHg 95%
02:00 +19°C° 0.5 mm 5 m/s 735 mmHg 95%
03:00 +19°C° 0.5 mm 6 m/s 735 mmHg 96%
04:00 +19°C° 0 mm 5 m/s 735 mmHg 95%
05:00 +17°C° 0 mm 5 m/s 736 mmHg 94%
06:00 +17°C° 0 mm 5 m/s 736 mmHg 94%
07:00 +17°C° 0 mm 5 m/s 736 mmHg 93%
08:00 +16°C° 0 mm 5 m/s 736 mmHg 92%
09:00 +16°C° 0 mm 5 m/s 737 mmHg 92%
10:00 +16°C° 0 mm 5 m/s 737 mmHg 89%
11:00 +17°C° 0 mm 6 m/s 738 mmHg 87%
12:00 +17°C° 0 mm 6 m/s 738 mmHg 84%
13:00 +17°C° 0.1 mm 6 m/s 738 mmHg 82%
14:00 +17°C° 0.1 mm 6 m/s 738 mmHg 80%
15:00 +17°C° 0.1 mm 7 m/s 739 mmHg 78%
16:00 +17°C° 0.1 mm 7 m/s 739 mmHg 78%
17:00 +17°C° 0.1 mm 7 m/s 739 mmHg 79%
18:00 +17°C° 0.1 mm 7 m/s 739 mmHg 79%
19:00 +16°C° 0 mm 6 m/s 739 mmHg 80%
20:00 +15°C° 0 mm 6 m/s 739 mmHg 82%
21:00 +14°C° 0 mm 5 m/s 739 mmHg 83%
22:00 +14°C° 0 mm 5 m/s 739 mmHg 84%
23:00 +13°C° 0 mm 5 m/s 739 mmHg 85%
Voir plus